| time (UTC) | temp C | wind direction | speed KPH | gust KPH | rain 1hr cm | rain 24hr cm | rain mn cm | humidity % | barometer mb |
| 20260503233016 | 24 | 317 | 4.8 | 14.5 | 0.00 | 0.00 | 0.00 | 29 | 1007.6 |
| 20260503231518 | 25 | 60 | 6.4 | 14.5 | 0.00 | 0.00 | 0.00 | 27 | 1007.6 |
| 20260503230014 | 25 | 314 | 1.6 | 11.3 | 0.00 | 0.00 | 0.00 | 26 | 1007.8 |
| 20260503224512 | 26 | 275 | 4.8 | 11.3 | 0.00 | 0.00 | 0.00 | 25 | 1007.9 |
| 20260503223020 | 27 | 285 | 1.6 | 9.7 | 0.00 | 0.00 | 0.00 | 24 | 1008.2 |
| 20260503221507 | 27 | 176 | 3.2 | 9.7 | 0.00 | 0.00 | 0.00 | 24 | 1008.4 |
| 20260503220006 | 27 | 257 | 1.6 | 6.4 | 0.00 | 0.00 | 0.00 | 25 | 1008.7 |
| 20260503214500 | 26 | 300 | 3.2 | 9.7 | 0.00 | 0.00 | 0.00 | 25 | 1009.0 |
| 20260503213133 | 25 | 244 | 6.4 | 14.5 | 0.00 | 0.00 | 0.00 | 26 | 1009.1 |
| 20260503211620 | 26 | 282 | 4.8 | 14.5 | 0.00 | 0.00 | 0.00 | 25 | 1009.3 |
| 20260503210054 | 26 | 237 | 1.6 | 8.0 | 0.00 | 0.00 | 0.00 | 24 | 1009.6 |
| 20260503204603 | 26 | 287 | 3.2 | 9.7 | 0.00 | 0.00 | 0.00 | 24 | 1009.9 |
| 20260503203049 | 26 | 264 | 1.6 | 8.0 | 0.00 | 0.00 | 0.00 | 24 | 1010.0 |
| 20260503201548 | 25 | 250 | 3.2 | 8.0 | 0.00 | 0.00 | 0.00 | 24 | 1010.2 |
| 20260503200046 | 25 | 154 | 3.2 | 9.7 | 0.00 | 0.00 | 0.00 | 25 | 1010.4 |
| 20260503194543 | 25 | 277 | 6.4 | 11.3 | 0.00 | 0.00 | 0.00 | 27 | 1010.7 |
| 20260503193040 | 25 | 141 | 1.6 | 8.0 | 0.00 | 0.00 | 0.00 | 28 | 1011.0 |
| 20260503191553 | 24 | 217 | 1.6 | 9.7 | 0.00 | 0.00 | 0.00 | 29 | 1011.2 |
| 20260503190134 | 23 | 109 | 4.8 | 9.7 | 0.00 | 0.00 | 0.00 | 30 | 1011.4 |
| 20260503184533 | 23 | 103 | 1.6 | 6.4 | 0.00 | 0.00 | 0.00 | 36 | 1011.7 |
| 20260503183035 | 21 | 39 | 1.6 | 9.7 | 0.00 | 0.00 | 0.00 | 43 | 1011.8 |
| 20260503181524 | 21 | 65 | 1.6 | 8.0 | 0.00 | 0.00 | 0.00 | 39 | 1012.0 |
| 20260503180028 | 22 | 108 | 1.6 | 4.8 | 0.00 | 0.00 | 0.00 | 36 | 1012.3 |
| 20260503174522 | 20 | 109 | 0.0 | 4.8 | 0.00 | 0.00 | 0.00 | 43 | 1012.5 |
| 20260503173015 | 18 | 82 | 3.2 | 8.0 | 0.00 | 0.00 | 0.00 | 45 | 1012.8 |
| 20260503171516 | 17 | 89 | 3.2 | 8.0 | 0.00 | 0.00 | 0.00 | 48 | 1012.8 |
| 20260503090106 | 6 | 122 | 0.0 | 1.6 | 0.00 | 0.00 | 0.00 | 85 | 1014.1 |
| 20260503081558 | 6 | 27 | 0.0 | 1.6 | 0.00 | 0.00 | 0.00 | 82 | 1014.0 |
| 20260503071603 | 7 | 110 | 0.0 | 1.6 | 0.00 | 0.00 | 0.00 | 80 | 1013.9 |
| 20260503054552 | 10 | 200 | 0.0 | 1.6 | 0.00 | 0.00 | 0.00 | 70 | 1013.2 |
| 20260503053037 | 10 | 127 | 1.6 | 3.2 | 0.00 | 0.00 | 0.00 | 71 | 1013.1 |
| 20260503051546 | 11 | 105 | 1.6 | 3.2 | 0.00 | 0.00 | 0.00 | 70 | 1013.0 |
| 20260503050036 | 11 | 120 | 0.0 | 1.6 | 0.00 | 0.00 | 0.00 | 68 | 1013.0 |
| 20260503044536 | 12 | 24 | 1.6 | 3.2 | 0.00 | 0.00 | 0.00 | 67 | 1012.9 |
| 20260503043035 | 13 | 83 | 0.0 | 3.2 | 0.00 | 0.00 | 0.00 | 63 | 1012.6 |
| 20260503041534 | 13 | 196 | 0.0 | 3.2 | 0.00 | 0.00 | 0.00 | 61 | 1012.4 |
| 20260503040035 | 14 | 68 | 0.0 | 4.8 | 0.00 | 0.00 | 0.00 | 58 | 1012.3 |
| 20260503034533 | 15 | 208 | 0.0 | 6.4 | 0.00 | 0.00 | 0.00 | 52 | 1012.1 |
| 20260503033037 | 15 | 158 | 3.2 | 8.0 | 0.00 | 0.00 | 0.00 | 52 | 1011.8 |
| 20260503031536 | 16 | 132 | 0.0 | 3.2 | 0.00 | 0.00 | 0.00 | 54 | 1011.2 |
| 20260503030035 | 17 | 98 | 0.0 | 4.8 | 0.00 | 0.00 | 0.00 | 46 | 1010.9 |
| 20260503024540 | 18 | 156 | 0.0 | 1.6 | 0.00 | 0.00 | 0.00 | 44 | 1010.9 |
| 20260503023030 | 20 | 173 | 1.6 | 4.8 | 0.00 | 0.00 | 0.00 | 44 | 1010.9 |
| 20260503021533 | 21 | 59 | 3.2 | 6.4 | 0.00 | 0.00 | 0.00 | 38 | 1010.9 |
| 20260503020029 | 22 | 295 | 0.0 | 6.4 | 0.00 | 0.00 | 0.00 | 33 | 1011.0 |
| 20260503014528 | 22 | 93 | 0.0 | 9.7 | 0.00 | 0.00 | 0.00 | 32 | 1010.8 |
| 20260503013034 | 22 | 233 | 0.0 | 12.9 | 0.00 | 0.00 | 0.00 | 34 | 1010.8 |
| 20260503011527 | 21 | 91 | 8.0 | 16.1 | 0.00 | 0.00 | 0.00 | 32 | 1010.9 |
| 20260503010031 | 22 | 89 | 8.0 | 20.9 | 0.00 | 0.00 | 0.00 | 34 | 1010.9 |
| 20260503004526 | 22 | 78 | 11.3 | 20.9 | 0.00 | 0.00 | 0.00 | 32 | 1010.9 |
| 20260503003033 | 24 | 166 | 1.6 | 4.8 | 0.00 | 0.00 | 0.00 | 26 | 1010.8 |
| 20260503001524 | 24 | 257 | 0.0 | 4.8 | 0.00 | 0.00 | 0.00 | 25 | 1010.7 |
| 20260503000023 | 24 | 280 | 6.4 | 12.9 | 0.00 | 0.00 | 0.00 | 28 | 1010.6 |
| 20260502234528 | 24 | 274 | 3.2 | 8.0 | 0.00 | 0.00 | 0.00 | 26 | 1010.6 |